Bettles, AK

12:30 PM AKST on November 12, 2019 (GMT -0900)
Bettles

Weather History for PABT - May, 2019

Change the Weather History Date:

Monday, May 27, 2019

  Actual Average Record
Temperature  
Mean Temperature 56 °F -  
Max Temperature 62 °F 61 °F 82 °F (2011)
Min Temperature 50 °F 39 °F 28 °F (1969)
Degree Days  
Heating Degree Days 9    
Growing Degree Days 6 (Base 50)    
Moisture  
Dew Point 44 °F    
Average Humidity 66    
Maximum Humidity 93    
Minimum Humidity 39    
Precipitation  
Precipitation 0.04 in - - ()
Sea Level Pressure  
Sea Level Pressure 29.70 in    
Wind  
Wind Speed 6 mph (SW)    
Max Wind Speed 14 mph    
Max Gust Speed 30 mph    
Visibility 9 miles    
Events Fog , Rain    
Averages and records for this station are not official NWS values.
T = Trace of Precipitation, MM = Missing Value Source: NWS Daily Summary

Daily Weather History Graph

Daily Weather History Graph

Search for Another Location

Airport or City:

Astronomy

May. 27, 2019 Rise Set
Actual Time 3:12 AM AKDT 12:59 AM AKDT
Civil Twilight Sun does not rise Sun does not rise
Nautical Twilight Sun does not rise Sun does not rise
Astronomical Twilight Sun does not rise Sun does not rise
Moon 4:35 AM AKDT (5/27) 1:53 PM AKDT (5/27)
Length of Visible Light 24h 00m
Length of Day
21h 46m
Last Quarter, 39% of the Moon is Illuminated
May 27
Last Quarter
Jun 3
New
Jun 9
First Quarter
Jun 17
Full
Jun 25
Last Quarter

Hourly Weather History & Observations

Time (AKDT) Temp. Dew Point Humidity Pressure Visibility Wind Dir Wind Speed Gust Speed Precip Events Conditions
12:53 AM 53.1 °F 50.0 °F 89% 29.54 in 10.0 mi North 4.6 mph - 0.01 in Rain Light Rain
1:53 AM 52.0 °F 48.9 °F 89% 29.54 in 10.0 mi WNW 6.9 mph - 0.01 in Rain Light Rain
2:53 AM 52.0 °F 48.9 °F 89% 29.55 in 10.0 mi NW 4.6 mph - 0.00 in Rain Light Rain
3:53 AM 51.1 °F 48.9 °F 92% 29.55 in 8.0 mi WNW 4.6 mph - 0.04 in Rain Light Rain
4:53 AM 51.1 °F 48.9 °F 92% 29.55 in 10.0 mi West 4.6 mph - 0.00 in   Overcast
5:53 AM 51.1 °F 48.9 °F 92% 29.59 in 8.0 mi Calm Calm - 0.02 in Rain Light Rain
6:53 AM 51.1 °F 48.9 °F 92% 29.62 in 4.0 mi Calm Calm - 0.02 in   Overcast
7:53 AM 53.1 °F 51.1 °F 93% 29.65 in 7.0 mi South 5.8 mph - N/A Fog Patches of Fog
8:03 AM 53.1 °F 51.1 °F 93% 29.63 in 7.0 mi Variable 4.6 mph - N/A Fog Patches of Fog
8:53 AM 55.0 °F 50.0 °F 83% 29.67 in 10.0 mi Variable 6.9 mph - N/A Fog Patches of Fog
9:53 AM 57.0 °F 46.0 °F 67% 29.68 in 10.0 mi SSW 6.9 mph - N/A   Mostly Cloudy
10:53 AM 59.0 °F 42.1 °F 53% 29.70 in 10.0 mi SSW 11.5 mph 19.6 mph N/A   Mostly Cloudy
11:53 AM 60.1 °F 37.9 °F 44% 29.72 in 10.0 mi WSW 11.5 mph 20.7 mph N/A   Mostly Cloudy
12:53 PM 60.1 °F 37.9 °F 44% 29.74 in 10.0 mi SW 9.2 mph 21.9 mph N/A   Mostly Cloudy
1:53 PM 61.0 °F 37.9 °F 42% 29.75 in 10.0 mi SSW 10.4 mph 18.4 mph 0.00 in   Mostly Cloudy
2:53 PM 57.9 °F 43.0 °F 58% 29.78 in 10.0 mi Variable 3.5 mph - 0.01 in Rain Light Rain
3:53 PM 55.9 °F 41.0 °F 57% 29.79 in 10.0 mi SSW 9.2 mph 29.9 mph 0.00 in Rain Light Rain
4:53 PM 62.1 °F 37.0 °F 39% 29.77 in 10.0 mi South 11.5 mph 19.6 mph 0.01 in   Mostly Cloudy
5:53 PM 57.9 °F 37.9 °F 47% 29.80 in 10.0 mi SSW 13.8 mph 26.5 mph N/A   Mostly Cloudy
6:53 PM 61.0 °F 37.9 °F 42% 29.80 in 10.0 mi South 8.1 mph 18.4 mph 0.00 in   Mostly Cloudy
7:53 PM 57.0 °F 37.9 °F 49% 29.81 in 10.0 mi WNW 5.8 mph - N/A   Mostly Cloudy
8:53 PM 57.9 °F 39.0 °F 49% 29.81 in 10.0 mi SE 5.8 mph - N/A   Mostly Cloudy
9:53 PM 55.9 °F 39.9 °F 55% 29.82 in 10.0 mi ESE 4.6 mph - N/A   Scattered Clouds
10:53 PM 55.9 °F 39.9 °F 55% 29.84 in 10.0 mi Variable 3.5 mph - N/A   Mostly Cloudy
11:53 PM 52.0 °F 39.9 °F 63% 29.86 in 10.0 mi Calm Calm - N/A   Scattered Clouds